EW7617 Weather Reports


Display with metric or nautical units.
time (UTC)temp
F
wind
direction
speed
MPH
gust
MPH
rain 1hr
in
rain 24hr
in
rain mn
in
humidity
%
barometer
mb
20260507021539 49 345 0.0 0.0 0.00 0.00 0.00 35 1013.9
20260507020039 50 321 0.0 1.0 0.00 0.00 0.00 34 1014.0
20260507014551 50 321 0.0 1.0 0.00 0.00 0.00 34 1013.9
20260507013045 51 353 0.0 2.0 0.00 0.00 0.00 34 1013.9
20260507011540 51 346 1.0 5.0 0.00 0.00 0.00 33 1013.8
20260507010037 52 314 3.0 7.0 0.00 0.00 0.00 32 1013.9
20260507004536 52 354 3.0 6.0 0.00 0.00 0.00 32 1013.9
20260507003037 52 316 2.0 7.0 0.00 0.00 0.00 32 1013.9
20260507001539 53 330 3.0 10.0 0.00 0.00 0.00 32 1014.0
20260507000034 53 319 2.0 7.0 0.00 0.00 0.00 33 1014.1
20260506234533 53 318 2.0 6.0 0.00 0.00 0.00 33 1014.2
20260506233033 54 314 3.0 8.0 0.00 0.00 0.00 32 1014.3
20260506231530 53 301 4.0 10.0 0.00 0.00 0.00 32 1014.4
20260506230030 53 20 5.0 16.0 0.00 0.00 0.00 32 1014.5
20260506224526 54 318 3.0 12.0 0.00 0.00 0.00 33 1014.6
20260506223025 52 277 3.0 8.0 0.00 0.00 0.00 33 1014.8
20260506221524 52 304 4.0 13.0 0.00 0.00 0.00 33 1014.9
20260506220024 52 229 3.0 10.0 0.00 0.00 0.00 35 1014.9
20260506214523 52 20 3.0 10.0 0.00 0.00 0.00 34 1015.0
20260506213022 53 257 3.0 8.0 0.00 0.00 0.00 34 1015.1
20260506211522 53 307 3.0 12.0 0.00 0.00 0.00 34 1015.4
20260506210018 52 324 5.0 12.0 0.00 0.00 0.00 35 1015.5
20260506204519 52 330 6.0 12.0 0.00 0.00 0.00 35 1015.8
20260506203021 52 318 5.0 14.0 0.00 0.00 0.00 36 1015.8
20260506201515 52 338 5.0 10.0 0.00 0.00 0.00 36 1016.2
20260506200014 51 329 5.0 12.0 0.00 0.00 0.00 35 1016.3
20260506194512 50 347 6.0 12.0 0.00 0.00 0.00 37 1016.5
20260506193008 50 245 6.0 15.0 0.00 0.00 0.00 38 1016.6
20260506191508 50 279 6.0 13.0 0.00 0.00 0.00 38 1016.7
20260506190008 50 312 7.0 15.0 0.00 0.00 0.00 38 1016.8
20260506184503 48 323 6.0 13.0 0.00 0.00 0.00 39 1017.0
20260506183005 49 283 4.0 12.0 0.00 0.00 0.00 40 1017.1
20260506181601 48 294 5.0 13.0 0.00 0.00 0.00 40 1017.2
20260506180106 47 300 5.0 14.0 0.00 0.00 0.00 37 1017.2
20260506174558 47 37 4.0 15.0 0.00 0.00 0.00 39 1017.3
20260506173117 47 276 5.0 13.0 0.00 0.00 0.00 38 1017.5
20260506171600 46 311 3.0 15.0 0.00 0.00 0.00 40 1017.6
20260506170052 46 309 4.0 14.0 0.00 0.00 0.00 40 1017.6
20260506164550 46 348 6.0 15.0 0.00 0.00 0.00 41 1017.5
20260506163050 45 352 2.0 13.0 0.00 0.00 0.00 43 1017.6
20260506161554 45 344 6.0 14.0 0.00 0.00 0.00 41 1017.7
20260506160050 45 4 5.0 15.0 0.00 0.00 0.00 43 1017.5
20260506154545 45 307 7.0 13.0 0.00 0.00 0.00 43 1017.6
20260506153045 45 354 5.0 12.0 0.00 0.00 0.00 45 1017.5
20260506151543 45 334 3.0 9.0 0.00 0.00 0.00 46 1017.5
20260506150040 44 355 4.0 11.0 0.00 0.00 0.00 47 1017.6
20260506144538 43 331 5.0 11.0 0.00 0.00 0.00 47 1017.6
20260506143036 43 342 4.0 8.0 0.00 0.00 0.00 50 1017.4
20260506141533 42 298 3.0 8.0 0.00 0.00 0.00 51 1017.3
20260506140031 41 342 3.0 6.0 0.00 0.00 0.00 53 1017.4
20260506134602 40 322 2.0 6.0 0.00 0.00 0.00 54 1017.4
20260506133025 40 336 2.0 4.0 0.00 0.00 0.00 55 1017.3
20260506131527 39 6 1.0 4.0 0.00 0.00 0.00 59 1017.3
20260506130022 37 289 2.0 3.0 0.00 0.00 0.00 62 1017.2
20260506124520 35 323 1.0 4.0 0.00 0.00 0.00 64 1017.1
20260506123018 33 296 0.0 1.0 0.00 0.00 0.00 66 1016.9
20260506121517 32 296 0.0 1.0 0.00 0.00 0.00 68 1016.8
20260506120015 31 328 0.0 2.0 0.00 0.00 0.00 68 1016.7
20260506114521 31 299 0.0 1.0 0.00 0.00 0.00 68 1016.3
20260506113010 31 316 0.0 2.0 0.00 0.00 0.00 68 1016.1
20260506111509 31 335 0.0 1.0 0.00 0.00 0.00 67 1016.1
20260506110012 32 250 0.0 0.0 0.00 0.00 0.00 67 1015.9
20260506104505 32 193 0.0 1.0 0.00 0.00 0.00 66 1015.7
20260506103017 32 298 0.0 0.0 0.00 0.00 0.00 68 1015.7
20260506101504 31 297 0.0 0.0 0.00 0.00 0.00 69 1015.7
20260506100002 31 297 0.0 0.0 0.00 0.00 0.00 68 1015.5
20260506094502 31 297 0.0 0.0 0.00 0.00 0.00 68 1015.4
20260506093101 31 271 0.0 0.0 0.00 0.00 0.00 69 1015.3
20260506091556 32 271 0.0 0.0 0.00 0.00 0.00 66 1015.1
20260506090053 32 316 0.0 0.0 0.00 0.00 0.00 65 1014.9
20260506084551 33 316 0.0 0.0 0.00 0.00 0.00 63 1014.8
20260506083108 33 316 0.0 0.0 0.00 0.00 0.00 63 1014.6
20260506081550 34 316 0.0 0.0 0.00 0.00 0.00 62 1014.7
20260506073041 35 325 0.0 0.0 0.00 0.00 0.00 58 1014.5
20260506071539 36 325 0.0 1.0 0.00 0.00 0.00 57 1014.5
20260506061537 37 345 0.0 1.0 0.00 0.00 0.00 54 1014.5
20260506044519 40 344 0.0 2.0 0.00 0.00 0.00 50 1013.8
20260506043017 40 353 1.0 4.0 0.00 0.00 0.00 50 1013.6
20260506041517 41 11 0.0 5.0 0.00 0.00 0.00 49 1013.8
20260506040021 42 358 1.0 4.0 0.00 0.00 0.00 47 1013.7
20260506034514 43 343 1.0 6.0 0.00 0.00 0.00 45 1013.6
20260506033015 44 334 1.0 5.0 0.00 0.00 0.00 44 1013.6
20260506031511 44 349 2.0 6.0 0.00 0.00 0.00 43 1013.5
20260506030009 45 331 1.0 5.0 0.00 0.00 0.00 42 1013.3
20260506024522 45 347 1.0 4.0 0.00 0.00 0.00 41 1013.2
20260506023007 45 319 2.0 5.0 0.00 0.00 0.00 40 1012.9